This is the latest recevied weather packets stored in our database for station/object K7FLA. If no packets are shown the sender has not sent any weather packets the latest 10 day(s).
| Time | Temp. | Humidity | Pressure | Rain* | Wind** | Luminosity | Snow |
|---|---|---|---|---|---|---|---|
| 1788475810 | 30° C | 23% | 1093.2 hPa | 0 mm | - | 426 W/m² | - |
| 1788475506 | 30° C | 24% | 1093.3 hPa | 0 mm | - | 442 W/m² | - |
| 1788475202 | 30° C | 26% | 1093.5 hPa | 0 mm | - | 457 W/m² | - |
| 1788474901 | 30° C | 24% | 1093.5 hPa | 0 mm | - | 476 W/m² | - |
| 1788474600 | 30° C | 23% | 1093.5 hPa | 0 mm | - | 489 W/m² | - |
| 1788474295 | 30° C | 23% | 1093.5 hPa | 0 mm | - | 504 W/m² | - |
| 1788473994 | 30° C | 23% | 1093.6 hPa | 0 mm | - | 519 W/m² | - |
| 1788473689 | 30° C | 22% | 1093.8 hPa | 0 mm | - | 533 W/m² | - |
| 1788473386 | 30.56° C | 23% | 1093.7 hPa | 0 mm | - | 546 W/m² | - |
| 1788473081 | 30.56° C | 23% | 1093.8 hPa | 0 mm | - | 561 W/m² | - |
| 1788472779 | 30.56° C | 24% | 1093.8 hPa | 0 mm | - | 577 W/m² | - |
| 1788472476 | 30.56° C | 23% | 1093.9 hPa | 0 mm | - | 590 W/m² | - |
| 1788472173 | 30.56° C | 23% | 1094 hPa | 0 mm | - | 601 W/m² | - |
| 1788471870 | 30.56° C | 24% | 1094 hPa | 0 mm | - | 612 W/m² | - |
| 1788471569 | 30.56° C | 24% | 1094.1 hPa | 0 mm | - | 625 W/m² | - |
| 1788471265 | 30.56° C | 24% | 1094.3 hPa | 0 mm | - | 638 W/m² | - |
| 1788470960 | 30.56° C | 23% | 1094.3 hPa | 0 mm | - | 648 W/m² | - |
| 1788470656 | 30.56° C | 25% | 1094.1 hPa | 0 mm | - | 658 W/m² | - |
| 1788470356 | 30.56° C | 26% | 1094.2 hPa | 0 mm | - | 668 W/m² | - |
| 1788470052 | 30.56° C | 23% | 1094.3 hPa | 0 mm | - | 678 W/m² | - |
| 1788469748 | 30.56° C | 23% | 1094.3 hPa | 0 mm | - | 687 W/m² | - |
| 1788469447 | 30.56° C | 25% | 1094.5 hPa | 0 mm | - | 701 W/m² | - |
| 1788469142 | 30.56° C | 26% | 1094.5 hPa | 0 mm | - | 703 W/m² | - |
| 1788468842 | 30.56° C | 22% | 1094.2 hPa | 0 mm | - | 712 W/m² | - |
| 1788468537 | 30.56° C | 24% | 1094.7 hPa | 0 mm | - | 723 W/m² | - |
* Rain latest hour (hover to see other rain measurements)
** Current wind speed in m/s (hover to see current wind gust speed)